Wind_Speed
3 3 3 5 4 5 8 6 6 7 6 6 6 8 7 9 9 3 8 6 1 2 0 1 4 2 0 4 6 5 4 3 2 2 2 1 2 2 2 2 4 4 5 5 4 5 6 6 6
4 4 6 6 4 7 8 7 4 7 9 8 7 7 7 10 9 8 7 6 2 2 1 0 4 5 3 3 5 4 3 2 1 3 1 0 2 3 1 2 3 4 4 4 4 4 4 5 5
3 4 6 7 8 6 5 3 4 8 10 10 9 9 8 10 11 10 8 5 6 2 3 1 2 6 4 4 4 3 3 3 2 3 1 1 3 3 3 3 3 4 4 4 3 3 2 3 4
2 4 6 10 9 7 2 1 4 7 10 11 13 8 10 11 12 12 9 6 6 1 4 4 2 4 6 5 5 3 2 2 4 3 3 2 4 4 4 4 5 5 5 5 4 3 1 1 2
5 1 5 9 12 7 4 2 3 7 11 14 15 12 12 12 12 10 10 8 5 2 4 5 5 3 5 6 5 6 3 3 3 5 4 3 4 4 3 4 5 5 6 6 5 3 2 1 1
7 4 5 8 7 5 2 2 2 4 11 15 16 12 10 12 11 9 11 10 8 4 5 5 7 7 5 7 7 6 5 4 4 3 5 4 5 4 4 4 4 5 6 6 6 5 5 4 4
9 10 8 8 5 4 2 4 5 8 12 16 13 10 9 9 8 10 10 11 10 8 6 7 8 9 9 8 9 8 7 5 5 4 4 5 6 5 5 5 5 6 6 7 7 8 7 7 6
11 12 11 10 8 5 5 6 8 9 12 11 11 7 10 11 9 11 11 10 11 9 8 8 10 11 11 11 10 11 10 8 6 6 5 5 6 7 7 6 6 7 7 8 9 10 10 9 9
13 15 14 14 13 12 11 9 10 9 10 9 10 13 13 12 11 11 12 11 9 9 10 10 11 12 14 14 13 12 12 11 9 6 7 6 7 8 8 8 8 8 8 9 9 11 12 12 12
15 19 16 15 15 17 19 18 17 15 12 13 12 12 13 14 13 13 13 11 9 8 10 12 12 14 15 15 15 14 14 14 13 10 8 7 7 8 10 10 11 10 11 11 11 12 13 13 13
21 23 18 19 19 20 20 21 22 21 19 16 19 18 17 14 13 12 15 16 13 12 9 10 14 14 15 16 18 18 17 17 16 15 13 11 10 9 10 11 13 13 13 14 13 14 14 14 14
23 24 23 23 22 24 25 26 27 25 23 21 19 20 19 19 17 14 16 17 16 16 14 12 13 16 15 16 17 20 21 20 19 18 17 16 14 13 13 14 15 15 16 17 17 17 17 16 16
25 24 23 23 24 25 26 28 29 30 26 25 25 26 25 21 19 18 18 16 16 17 17 16 14 14 15 15 15 17 20 23 23 22 22 20 18 18 17 17 17 18 18 18 19 20 20 20 19
25 24 24 25 24 28 31 31 32 28 26 28 28 26 24 24 21 21 19 16 17 17 18 18 16 14 15 14 13 12 14 19 23 25 24 24 23 22 21 21 21 21 21 22 22 22 23 23 22
24 25 25 26 25 28 28 33 32 28 28 28 27 24 23 23 22 21 21 21 21 17 17 18 16 15 15 13 13 16 12 11 15 20 26 28 27 26 26 25 25 24 25 25 25 25 25 25 25
20 23 25 25 24 23 26 42 31 25 28 28 26 26 26 23 24 23 23 21 21 22 18 19 19 16 16 15 14 16 17 21 17 19 20 23 27 29 29 29 28 27 28 29 29 28 28 27 27
22 24 22 22 21 22 26 39 31 23 22 22 22 23 25 24 22 24 25 25 20 23 24 22 22 21 21 22 21 24 25 26 28 24 22 21 21 24 27 29 29 29 31 32 31 31 31 29 29
18 25 25 21 21 22 29 38 32 28 29 29 26 26 27 26 26 26 26 25 27 24 24 25 26 24 23 26 28 28 30 31 29 27 29 21 22 22 21 22 24 27 30 33 34 33 33 33 32
27 27 26 22 17 25 29 37 34 31 33 33 34 36 35 30 28 26 24 29 30 30 26 26 27 27 30 31 30 30 28 29 29 26 26 33 28 22 23 24 23 24 26 28 29 33 35 35 35
27 27 26 27 26 29 34 44 39 36 35 33 32 32 35 33 28 26 26 30 34 33 34 32 32 31 33 33 31 29 28 27 30 30 32 34 36 31 24 24 25 26 27 28 28 29 32 33 34
30 29 27 29 26 28 34 51 44 40 39 36 38 37 38 39 37 34 32 28 29 33 34 36 36 37 36 34 34 33 34 30 32 33 32 35 30 24 30 24 30 31 29 30 31 31 30 31 31
34 30 28 27 27 25 21 24 41 41 41 38 38 38 37 35 29 25 27 29 29 27 27 30 33 38 38 35 36 36 36 36 33 32 35 35 37 38 36 36 34 34 35 32 32 33 33 32 31
26 23 19 13 17 24 29 16 43 35 38 36 36 28 26 26 24 24 27 28 32 32 31 32 31 30 31 34 37 37 38 38 38 37 39 38 38 40 43 38 32 36 41 41 38 36 40 39 35
20 16 17 16 17 14 23 18 37 35 35 33 12 19 15 9 16 25 28 27 27 27 29 28 26 25 27 28 29 31 32 31 31 31 33 32 32 33 36 39 42 38 44 47 46 37 45 44 43
29 19 4 5 7 8 13 15 34 33 38 29 28 26 15 12 15 18 17 22 24 23 21 21 21 21 21 23 22 22 23 25 24 24 26 29 30 32 32 32 36 40 41 42 50 48 44 45 47
28 32 16 4 4 5 18 13 26 34 32 18 14 14 18 22 20 20 21 22 22 21 22 23 23 20 19 18 20 21 21 21 22 23 23 27 30 31 32 33 34 37 40 42 46 46 47 47 48
31 33 35 30 26 11 18 31 41 34 26 23 18 24 28 28 26 23 22 21 21 23 24 20 18 17 17 19 21 24 26 28 29 30 30 31 32 31 34 36 37 37 38 41 40 44 46 47 50
30 22 15 22 6 7 6 15 24 14 20 20 19 20 27 27 27 24 21 21 22 22 20 18 18 21 23 25 26 25 26 28 30 30 31 33 33 34 35 36 36 38 38 39 41 43 45 45 46
34 34 20 17 16 2 3 10 21 10 12 13 18 23 26 28 25 23 21 19 19 20 18 16 16 16 18 21 24 26 28 31 34 36 36 36 37 38 37 36 37 37 38 39 41 43 44 44 44
37 41 39 19 10 16 19 30 16 21 17 20 15 22 23 23 23 21 18 17 13 13 14 17 20 22 25 27 30 33 33 33 35 37 39 41 41 41 42 41 38 37 38 38 40 43 44 43 44
Wind_Direction
328 321 194 139 133 103 101 99 69 28 13 7 24 23 19 27 28 2 345 348 328 219 107 17 346 349 181 342 332 336 327 320 318 324 8 52 138 135 147 146 147 163 157 150 126 101 90 80 68
322 352 152 125 129 118 103 97 22 14 13 357 357 0 4 9 21 16 3 359 346 210 226 353 342 331 329 339 335 344 332 321 299 309 33 131 128 135 140 153 164 165 175 169 140 111 98 85 70
323 67 126 118 99 99 95 112 14 358 355 357 347 348 3 350 0 12 5 9 353 258 241 246 339 334 328 328 333 342 346 320 294 302 286 188 154 147 162 173 173 183 191 199 169 135 115 92 66
238 75 104 119 104 73 103 55 356 349 341 336 334 333 325 329 339 353 5 359 359 262 251 247 276 328 337 334 330 319 328 294 289 290 288 214 194 181 180 183 185 196 204 214 208 187 180 72 45
236 183 118 100 98 103 114 105 1 337 327 327 325 326 321 324 333 349 2 355 1 267 249 262 263 272 316 329 335 312 308 275 270 292 290 270 247 233 214 220 211 214 219 225 233 237 254 277 325
243 228 145 135 104 126 146 191 241 305 319 322 318 316 331 336 333 350 1 4 351 319 240 264 259 268 280 301 318 322 302 272 243 264 292 288 265 272 278 262 256 248 243 247 253 257 263 277 288
248 240 226 194 182 175 232 254 276 297 316 321 310 312 329 335 326 334 350 359 353 330 283 264 255 263 273 283 295 307 309 284 257 253 270 288 285 267 266 273 274 267 261 262 265 269 272 276 284
248 244 233 222 222 232 250 262 288 299 302 315 310 304 303 310 304 313 330 346 352 339 310 273 269 256 267 274 282 290 297 300 271 267 260 278 283 276 271 266 270 275 267 264 266 270 275 276 280
250 246 244 230 233 223 233 242 257 273 292 295 311 306 301 297 294 300 312 322 337 340 329 303 276 266 263 267 271 277 284 289 288 274 274 265 276 278 270 271 267 267 269 265 263 267 274 279 282
241 247 250 244 240 239 236 246 253 262 264 279 297 306 300 299 297 298 302 303 310 321 328 322 304 274 259 261 264 267 271 278 282 281 273 272 270 273 277 273 269 264 263 263 264 265 268 275 283
247 247 248 250 248 248 250 253 260 265 270 277 285 287 285 288 286 292 293 301 301 300 309 313 312 298 275 260 263 264 265 269 276 279 275 269 268 271 273 277 276 275 272 269 269 272 274 277 280
249 249 248 250 252 254 256 257 260 262 274 281 285 283 281 278 287 290 291 290 295 295 294 290 297 302 291 273 262 263 265 266 267 273 273 273 270 271 273 273 272 273 274 276 277 275 275 276 278
244 249 250 252 253 256 258 259 265 264 267 273 279 280 282 280 276 276 277 286 291 295 290 286 284 292 292 286 276 268 265 267 264 265 268 271 270 270 272 275 277 277 274 274 274 276 278 278 279
246 251 255 256 256 261 263 265 265 270 271 271 276 279 278 278 279 269 271 274 279 282 288 283 288 283 280 287 288 281 274 269 267 265 267 267 267 268 269 272 275 277 278 277 275 274 275 277 278
251 256 255 255 258 261 271 267 266 276 274 272 273 277 278 277 271 273 268 263 270 271 274 285 280 279 277 276 269 276 298 293 287 273 266 267 266 266 267 267 269 273 276 277 277 278 278 279 280
257 260 260 257 259 266 270 273 275 280 278 273 272 273 276 274 274 272 272 273 266 266 262 267 275 270 265 264 267 275 277 280 290 290 281 271 267 265 264 263 264 266 269 271 274 275 277 280 281
250 253 258 263 261 264 259 272 278 275 276 279 275 271 269 271 271 272 275 277 268 260 261 256 265 268 266 264 266 273 276 275 268 271 281 277 273 269 266 263 262 263 265 267 269 270 274 276 277
242 250 262 267 267 266 265 266 273 278 276 277 274 271 270 272 273 265 266 270 276 268 263 263 262 264 270 270 275 275 276 276 275 277 246 264 272 273 274 271 266 263 263 266 267 267 267 269 270
241 249 259 261 271 277 274 273 274 274 269 267 270 277 280 278 275 271 266 273 268 269 264 262 262 266 270 274 276 279 277 273 267 268 264 248 245 259 272 276 276 275 273 271 270 267 265 266 268
243 249 258 273 267 270 278 276 276 273 274 273 278 279 280 280 275 271 285 274 272 265 261 257 259 258 263 268 274 272 273 270 268 260 260 265 261 244 270 273 273 271 273 273 271 270 269 269 267
243 249 258 269 282 272 281 278 279 280 276 280 279 279 279 280 282 280 279 271 269 264 261 260 259 260 260 260 261 264 265 268 269 265 266 267 271 276 257 267 274 272 271 272 274 272 272 272 270
251 255 263 269 278 278 281 290 280 282 285 283 285 282 284 287 289 280 260 260 262 267 271 272 265 264 265 261 259 261 266 270 273 273 272 267 266 265 266 253 262 265 271 273 274 273 272 268 270
248 263 266 268 271 282 273 266 280 293 293 295 299 304 289 275 260 254 254 258 267 266 266 267 268 266 265 265 266 268 270 272 275 275 273 273 273 271 270 262 262 268 270 265 268 269 270 268 266
242 239 252 267 260 254 264 251 278 288 299 303 309 332 322 270 257 260 267 262 262 267 271 277 282 281 279 278 277 277 280 282 282 280 280 278 275 275 275 269 272 280 279 280 274 264 260 259 262
239 250 245 224 221 256 274 252 263 289 295 287 293 286 252 259 267 262 253 250 262 270 277 286 288 282 278 281 282 282 284 286 288 289 288 287 283 279 278 273 268 268 266 270 271 269 262 262 262
239 241 225 215 208 256 262 242 273 290 288 284 293 267 240 255 268 254 252 255 262 269 278 284 289 282 278 278 280 282 285 288 290 291 291 290 290 288 285 281 274 269 268 267 270 269 266 263 263
229 227 242 245 261 274 264 268 272 274 285 271 261 264 248 252 254 235 240 250 261 271 276 269 260 263 272 279 283 287 289 291 289 291 293 292 289 289 288 289 287 281 273 270 267 267 269 267 263
223 237 215 215 234 235 241 265 258 259 283 282 259 251 242 244 238 238 247 258 268 265 254 249 261 270 274 276 280 287 290 293 294 294 293 293 294 292 290 289 291 289 285 280 274 271 268 268 267
210 222 219 228 234 214 229 252 282 282 274 267 236 229 226 225 226 236 250 255 251 249 255 262 271 280 287 293 295 294 294 295 296 296 296 294 294 293 292 290 291 291 291 287 281 275 272 270 269
236 242 224 221 217 229 251 265 256 273 280 275 229 217 216 225 239 243 235 236 248 265 281 292 299 301 304 306 307 305 301 297 294 294 294 294 293 293 292 291 289 289 291 289 286 281 276 270 267
Height
3181 3180 3181 3182 3186 3183 3184 3187 3187 3187 3186 3186 3186 3185 3184 3182 3182 3184 3179 3177 3177 3177 3177 3177 3177 3175 3175 3175 3175 3175 3175 3175 3176 3176 3175 3175 3176 3175 3176 3175 3174 3174 3173 3173 3172 3172 3172 3172 3172
3181 3180 3181 3182 3184 3183 3186 3186 3187 3188 3187 3186 3186 3185 3184 3183 3182 3181 3179 3178 3177 3177 3177 3177 3177 3176 3175 3175 3175 3176 3176 3176 3176 3176 3176 3176 3176 3176 3176 3176 3175 3175 3174 3174 3174 3174 3173 3173 3172
3181 3181 3182 3183 3183 3184 3186 3187 3187 3187 3187 3187 3186 3186 3185 3184 3183 3181 3179 3178 3177 3176 3177 3177 3177 3178 3177 3176 3175 3175 3176 3177 3177 3177 3177 3176 3176 3176 3176 3176 3175 3175 3175 3175 3175 3174 3174 3173 3173
3181 3183 3184 3184 3183 3185 3186 3187 3187 3186 3187 3186 3186 3186 3186 3184 3183 3182 3180 3177 3176 3176 3177 3178 3177 3178 3178 3176 3177 3176 3176 3177 3178 3177 3177 3178 3176 3176 3175 3175 3175 3175 3175 3175 3175 3175 3175 3174 3174
3181 3183 3183 3184 3184 3185 3185 3186 3186 3186 3186 3185 3185 3185 3184 3184 3183 3181 3180 3177 3176 3176 3177 3178 3178 3178 3179 3179 3178 3177 3176 3177 3177 3179 3178 3178 3178 3177 3176 3175 3175 3175 3175 3175 3175 3175 3175 3174 3174
3181 3182 3183 3184 3184 3185 3185 3185 3185 3185 3185 3185 3184 3183 3184 3183 3183 3182 3181 3179 3177 3176 3176 3177 3178 3179 3178 3179 3179 3178 3177 3177 3177 3177 3179 3179 3178 3178 3177 3177 3177 3176 3176 3175 3175 3175 3175 3174 3174
3179 3181 3182 3183 3184 3185 3185 3185 3185 3184 3184 3184 3182 3182 3183 3182 3181 3181 3181 3180 3178 3177 3176 3177 3177 3178 3179 3179 3179 3179 3178 3177 3177 3176 3177 3179 3179 3178 3177 3177 3177 3176 3176 3175 3175 3175 3175 3174 3174
3178 3180 3180 3181 3182 3183 3183 3183 3183 3184 3184 3183 3182 3182 3182 3181 3180 3180 3180 3179 3178 3177 3177 3176 3177 3176 3178 3178 3179 3179 3178 3178 3176 3176 3176 3176 3177 3178 3177 3177 3176 3176 3175 3175 3175 3174 3174 3174 3173
3177 3178 3177 3178 3179 3181 3181 3181 3181 3182 3182 3182 3182 3181 3181 3180 3179 3179 3179 3178 3178 3177 3176 3176 3175 3175 3176 3177 3177 3178 3178 3178 3177 3176 3176 3175 3175 3176 3176 3176 3175 3175 3174 3174 3173 3173 3172 3172 3171
3174 3175 3176 3177 3177 3177 3178 3178 3178 3180 3180 3181 3181 3181 3179 3178 3178 3178 3177 3176 3176 3176 3176 3175 3174 3174 3173 3174 3175 3176 3176 3177 3177 3176 3175 3174 3174 3174 3175 3174 3174 3173 3173 3172 3171 3170 3170 3170 3169
3169 3171 3174 3174 3174 3174 3176 3176 3175 3176 3177 3178 3178 3178 3177 3176 3175 3175 3176 3175 3175 3174 3173 3173 3173 3172 3171 3171 3172 3173 3174 3174 3175 3175 3175 3174 3173 3173 3172 3173 3173 3172 3171 3170 3169 3168 3168 3168 3167
3166 3167 3169 3171 3171 3171 3172 3172 3172 3173 3175 3175 3175 3174 3174 3174 3174 3173 3173 3172 3171 3171 3171 3170 3171 3171 3170 3169 3168 3170 3170 3171 3172 3173 3172 3173 3172 3171 3171 3170 3170 3170 3169 3169 3168 3167 3166 3165 3164
3161 3163 3164 3166 3167 3168 3168 3168 3167 3169 3172 3172 3171 3170 3170 3170 3170 3170 3169 3169 3168 3168 3168 3169 3168 3168 3168 3168 3166 3165 3167 3167 3169 3169 3170 3170 3170 3169 3168 3168 3168 3168 3166 3165 3165 3164 3163 3162 3162
3156 3158 3161 3162 3164 3163 3162 3162 3163 3166 3168 3167 3167 3167 3166 3166 3167 3165 3166 3166 3165 3165 3165 3164 3166 3165 3165 3166 3165 3164 3162 3163 3164 3165 3166 3166 3166 3165 3165 3165 3165 3164 3163 3162 3161 3160 3159 3159 3158
3152 3154 3155 3157 3160 3158 3159 3155 3157 3161 3162 3162 3162 3162 3162 3162 3162 3162 3162 3161 3161 3161 3161 3161 3161 3162 3162 3163 3163 3163 3161 3159 3159 3160 3160 3160 3161 3161 3160 3160 3160 3160 3159 3158 3158 3157 3156 3155 3154
3149 3149 3150 3154 3155 3157 3156 3144 3154 3158 3156 3156 3157 3157 3156 3157 3157 3157 3157 3157 3157 3157 3157 3156 3157 3157 3157 3158 3159 3159 3159 3158 3155 3155 3155 3154 3154 3154 3154 3154 3154 3154 3153 3153 3153 3152 3151 3151 3149
3145 3145 3146 3149 3151 3152 3152 3141 3148 3151 3149 3150 3151 3151 3152 3152 3152 3153 3152 3152 3152 3152 3151 3151 3151 3152 3152 3152 3151 3152 3153 3153 3152 3151 3150 3149 3147 3147 3147 3147 3147 3147 3146 3146 3146 3146 3145 3145 3144
3141 3142 3144 3145 3148 3147 3144 3136 3141 3146 3145 3144 3145 3146 3146 3147 3147 3147 3147 3147 3146 3145 3146 3146 3146 3146 3147 3146 3145 3144 3144 3146 3146 3146 3145 3144 3142 3141 3141 3141 3140 3140 3139 3138 3139 3139 3138 3137 3137
3138 3140 3142 3143 3145 3142 3139 3132 3135 3138 3138 3140 3140 3141 3140 3140 3142 3141 3141 3141 3139 3139 3140 3140 3140 3141 3140 3140 3139 3138 3137 3137 3138 3139 3139 3137 3135 3135 3135 3135 3134 3134 3132 3131 3131 3130 3130 3130 3130
3133 3135 3138 3139 3142 3141 3135 3123 3127 3130 3131 3133 3134 3133 3132 3132 3134 3135 3135 3134 3132 3131 3131 3131 3132 3134 3134 3133 3133 3132 3131 3129 3131 3131 3131 3130 3127 3130 3129 3129 3128 3128 3126 3125 3124 3123 3122 3122 3122
3128 3131 3135 3136 3136 3135 3132 3112 3119 3122 3123 3126 3126 3126 3124 3124 3126 3128 3127 3126 3124 3123 3123 3124 3125 3125 3126 3126 3124 3124 3122 3121 3123 3125 3124 3122 3120 3120 3122 3122 3121 3120 3120 3118 3117 3117 3116 3114 3115
3124 3129 3132 3133 3134 3129 3130 3111 3110 3113 3114 3118 3118 3118 3117 3119 3119 3118 3118 3118 3116 3116 3117 3117 3117 3118 3118 3118 3117 3116 3116 3115 3117 3117 3116 3116 3114 3114 3110 3111 3112 3111 3111 3111 3110 3110 3109 3107 3106
3121 3125 3128 3128 3128 3125 3123 3126 3095 3106 3107 3110 3111 3110 3108 3108 3110 3111 3110 3109 3110 3110 3110 3110 3110 3110 3110 3111 3110 3109 3109 3108 3109 3108 3107 3107 3107 3107 3105 3103 3102 3099 3100 3101 3101 3100 3100 3100 3099
3120 3122 3123 3123 3124 3119 3116 3122 3098 3102 3104 3103 3107 3106 3104 3102 3103 3103 3103 3103 3105 3105 3105 3105 3106 3106 3106 3105 3104 3103 3102 3101 3101 3100 3098 3097 3097 3097 3097 3097 3094 3094 3092 3092 3090 3092 3090 3089 3089
3112 3117 3117 3118 3116 3110 3109 3111 3096 3100 3100 3102 3102 3102 3102 3101 3099 3099 3099 3100 3101 3101 3101 3102 3101 3101 3101 3100 3100 3098 3097 3095 3094 3093 3091 3090 3088 3087 3087 3087 3087 3085 3083 3084 3081 3080 3080 3079 3078
3107 3112 3112 3111 3111 3106 3104 3097 3091 3097 3097 3098 3100 3097 3095 3094 3096 3096 3096 3096 3097 3097 3098 3098 3098 3097 3096 3095 3095 3094 3093 3091 3089 3087 3084 3083 3080 3078 3077 3076 3075 3075 3074 3073 3072 3069 3068 3068 3068
3098 3101 3105 3107 3105 3106 3100 3092 3089 3093 3092 3092 3093 3092 3091 3090 3091 3092 3093 3093 3093 3094 3094 3094 3094 3094 3093 3092 3090 3089 3087 3086 3084 3081 3079 3076 3073 3070 3068 3066 3065 3064 3063 3062 3061 3059 3058 3057 3057
3091 3096 3100 3102 3101 3098 3092 3090 3084 3087 3087 3086 3086 3086 3085 3086 3087 3089 3090 3090 3090 3090 3090 3090 3090 3089 3089 3087 3086 3083 3081 3079 3076 3074 3071 3068 3066 3063 3060 3057 3055 3054 3053 3052 3050 3049 3047 3046 3045
3084 3086 3090 3093 3093 3090 3093 3083 3082 3082 3082 3079 3078 3077 3079 3081 3083 3084 3085 3086 3085 3085 3086 3085 3085 3084 3082 3081 3080 3078 3076 3072 3069 3066 3063 3060 3057 3054 3052 3050 3047 3044 3042 3041 3040 3038 3037 3035 3035
3075 3075 3081 3084 3086 3085 3084 3076 3079 3077 3079 3075 3074 3076 3078 3080 3081 3081 3081 3081 3081 3082 3082 3081 3080 3078 3076 3074 3072 3070 3068 3065 3062 3059 3055 3052 3049 3046 3042 3040 3039 3036 3033 3030 3029 3028 3026 3024 3024